Regional Weather Roundup
Issued by NWS

Home | Current Version | Previous Version | Graphics & Text | Print | Product List | Glossary Off
Versions: 1 2 3 4 5 6 7 8 9 10 11 12 13 14 15 16 17 18 19 20 21 22 23 24 25 26 27 28 29 30 31 32 33 34 35 36 37 38 39 40 41 42 43 44 45 46 47 48 49 50

000
ASUS45 KBOU 302010
RWRCO

WEATHER ROUNDUP FOR COLORADO
NATIONAL WEATHER SERVICE DENVER/BOULDER CO
200 PM MDT THU JUL 30 2015

NOTE: "FAIR" INDICATES FEW OR NO CLOUDS BELOW 12000 FEET WITH NO
SIGNIFICANT WEATHER AND/OR OBSTRUCTIONS TO VISIBILITY.

COZ001>005-013-030-031-302100-
...NORTHWEST COLORADO...

CITY           SKY/WX    TMP DP  RH WIND       PRES   REMARKS
CRAIG          SUNNY     89  21   8 VRB5G16   30.38F
HAYDEN         SUNNY     82  21  10 NE8       30.40F
MEEKER         SUNNY     86  24  10 VRB7      30.38F
MOUNT WERNER   NOT AVBL
STEAMBOAT SPGS SUNNY     81  17   9 N6        30.42F
WALDEN         SUNNY     73  16  11 CALM      30.53F
$$

COZ006>008-011-302100-
...WEST CENTRAL VALLEYS...

CITY           SKY/WX    TMP DP  RH WIND       PRES   REMARKS
GRAND JUNCTION SUNNY     89  36  15 NW8G17    30.26F
MONTROSE       SUNNY     89  26  10 W10       30.33F
EAGLE          SUNNY     84  27  12 CALM      30.40F
RIFLE          SUNNY     90  22   8 VRB5      30.30F
DELTA          SUNNY     93  24   8 S7        30.29F
NUCLA          SUNNY     88  32  13 W5        30.37F
$$

COZ017>023-064>068-302100-
...SOUTHWEST COLORADO...

CITY           SKY/WX    TMP DP  RH WIND       PRES   REMARKS
DURANGO        MOSUNNY   81  48  31 MISG      30.39F
CORTEZ         SUNNY     88  45  22 S6        30.33F
PAGOSA SPRINGS PTSUNNY   78  41  26 CALM      30.46F
TELLURIDE      MOSUNNY   76  31  19 NW5       30.58F
WOLF CREEK PAS NOT AVBL
$$

COZ009-010-012-014-032>034-037-058>063-302100-
...CENTRAL COLORADO...

CITY           SKY/WX    TMP DP  RH WIND       PRES   REMARKS
ASPEN          SUNNY     80  28  15 VRB6      30.47F
BUENA VISTA    MOSUNNY   79  30  17 E9        30.48F
COPPER MTN     SUNNY     64  19  17 SW6G24    30.82S
BERTHOUD PASS  FAIR      50  39  66 MISG      30.88S
COTTONWOOD PAS MOSUNNY   79  19  11 E3        30.64F
GUNNISON       MOSUNNY   79  27  14 S3        30.48F
KREMMLING      SUNNY     82   9   6 SW7       30.47F
LEADVILLE      SUNNY     71  22  15 N8        30.62F
MONARCH PASS   MOSUNNY   61  30  31 NE15      30.90S
SALIDA         MOSUNNY   84  40  21 SE8       30.51F
SUNLIGHT       SUNNY     66  27  22 CALM      30.76F
WILKERSON PASS MOSUNNY   63  32  31 E8        30.79F
$$

COZ069>075-302100-
...SAN LUIS VALLEY/SANGRE DE CRISTO MOUNTAINS...

CITY           SKY/WX    TMP DP  RH WIND       PRES   REMARKS
ALAMOSA        MOSUNNY   77  47  34 S13       30.45F
LA VETA PASS   PTSUNNY   61  45  55 MISG      30.67S
SAGUACHE       MOSUNNY   77  45  31 S10G16    30.48F
$$

COZ035-036-038>040-302100-
...NORTHERN COLORADO FRONT RANGE...

CITY           SKY/WX    TMP DP  RH WIND       PRES   REMARKS
DENVER INTL AP MOSUNNY   88  42  20 VRB6G18   30.32F
DMNS CITY PARK   N/A     88  40  18 W5G18     30.31F
AURORA         NOT AVBL
FRONT RANGE AP MOSUNNY   86  45  23 N6        30.34S
ERIE MUNI ARPT SUNNY     89  30  12 NE7G17    30.30F
BOULDER MUN AP SUNNY     88  37  16 NE5       30.31F
CENTENNIAL     MOSUNNY   87  44  22 NE6       30.35F
BROOMFIELD     MOSUNNY   86  43  22 VRB5      30.35F
FORT COLLINS   SUNNY     90  46  22 N8        30.29F
LONGMONT       SUNNY     91  39  16 SE5       30.32S
$$

COZ041-046-047-076>085-087-088-302100-
...PIKES PEAK/PALMER DIVIDE AND SOUTHERN FOOTHILLS...

CITY           SKY/WX    TMP DP  RH WIND       PRES   REMARKS
COLO. SPRINGS  PTSUNNY   83  50  31 E8        30.38F
A. F. ACADEMY  NOT AVBL
ELLICOTT       MOSUNNY  N/A N/A N/A VRB3      30.37F
FALCON         PTSUNNY   78  50  37 CALM      30.44F
FORT CARSON    MOSUNNY   83  53  35 VRB6      30.35F
LIMON          MOSUNNY   84  54  35 VRB6G18   30.34F
MONUMENT HILL  MOSUNNY   79  41  25 NE6       30.45F
TRINIDAD       PTSUNNY   83  50  31 SE10      30.35F
$$

COZ042>045-048>051-090-091-302100-
...NORTHEAST COLORADO...

CITY           SKY/WX    TMP DP  RH WIND       PRES   REMARKS
GREELEY ARPT   SUNNY     88  48  25 E7        30.29F
AKRON          PTSUNNY   87  55  33 S13G21    30.29F
BURLINGTON     MOSUNNY   84  55  36 SE13      30.29F
WRAY           SUNNY     91  56  29 S8        30.25F
STERLING       NOT AVBL
HOLYOKE        NOT AVBL
FORT MORGAN    SUNNY     88  54  30 SE6       30.28F
$$

COZ086-089-092>099-302100-
...SOUTHEAST COLORADO...

CITY           SKY/WX    TMP DP  RH WIND       PRES   REMARKS
PUEBLO         MOSUNNY   89  54  30 CALM      30.27F
LA JUNTA       PTSUNNY   89  55  31 S8        30.25F
LAMAR          PTSUNNY   83  63  50 SE12      30.24F
SPRINGFIELD      N/A     76  62  62 SE13      30.31S
$$


USA.gov is the U.S. government's official web portal to all federal, state and local government web resources and services.